MONITOR-3 (RS58S)

Last updated on Fri May 09 2025 00:03:04 GMT+0000 (Coordinated Universal Time)

1 57180U 23091Q 25128.53026717 .00009455 00000+0 45956-3 0 9999 2 57180 97.5633 185.5206 0015883 79.9346 280.3679 15.18535090102708
UTC large
Height (km)
Speed (km/s)
/
Latitude / Longitude
Inclination (degrees)
Orbital Period (minutes)
Azimuth
Elevation
Range (km)
Doppler Factor

Next 0 passes for location: London (51.5072 / 0.1276)

Sorry there are no passes over London.